Location: Colorado Springs
(38.8340°N, 104.8210°W)
Time: 19:10:08
(UTC-07:00)

Vanguard 3 - Pass Details

Date: 26 October 2017
Orbit: 509 x 3263 km, 33.4° (Epoch: 18 November)

Event Time Altitude Azimuth Distance (km) Brightness Sun altitude
Rises 02:47:42 0° 233° (SW) 7,224 - -51.9°
Reaches altitude 10° 02:52:51 10° 229° (SW) 6,164 - -51.1°
Maximum altitude 03:10:57 53° 160° (SSE) 3,051 - -48.1°
Exits shadow 03:12:45 51° 141° (SE) 2,989 9.8 -47.8°
Drops below altitude 10° 03:22:58 10° 88° (E) 4,248 11.3 -46.0°
Sets 03:25:48 0° 84° (E) 4,927 11.8 -45.5°
